Orbital Elements at Epoch 2459200.5 (2020-Dec-17.0) TDB
Reference: JPL 18 (heliocentric ecliptic J2000)
Element | Value | Uncertainty (1-sigma) | Units |
e | .05419105131521786 | 4.5889e-08 | |
a | 2.683989997206097 | 2.1085e-08 | au |
q | 2.53854175753797 | 1.2845e-07 | au |
i | 8.726544658338263 | 6.0807e-06 | deg |
node | 201.7627880107616 | 2.8621e-05 | deg |
peri | 243.3673622994812 | 6.662e-05 | deg |
M | 42.13253273544273 | 5.7619e-05 | deg |
tp | 2459012.531605310975 (2020-Jun-12.03160531) | 0.00025702 | TDB |
period | 1606.08958670849 4.40 | 1.8925e-05 5.181e-08 | d yr |
n | .2241468987653309 | 2.6412e-09 | deg/d |
Q | 2.829438236874224 | 2.2227e-08 | au |
|
| | Orbit Determination Parameters
Additional Information
|